Tracking 29892 objects as of 21-Nov-2024
HD Live streaming from Space Station
objects crossing your sky now

THORAD AGENA D DEB

Track THORAD AGENA D DEB now!
10-day predictions


NORAD ID: 5153
Int'l Code: 1970-025JW
Perigee: 1,026.9 km
Apogee: 1,077.4 km
Inclination: 100.0 °
Period: 106.1 minutes
Semi major axis: 7423 km
RCS: 0.0057 m2 (small)
Launch date: April 8, 1970
Source: United States (US)
Launch site: AIR FORCE WESTERN TEST RANGE (AFWTR)

Note: This is SATELLITE DEBRIS
Your satellite tracking list
Your tracking list is empty




NASA's NSSDC Master Catalog

Two Line Element Set (TLE):
1 05153U 70025JW  24325.26909036  .00000738  00000-0  10921-2 0  9992
2 05153  99.9583  61.7366 0033965 239.9456 143.4825 13.57441669691326
Source of the keplerian elements: AFSPC